Weather Roundup
Issued by NWS Chicago, IL

Home | Current Version | Previous Version | Graphics & Text | Print | Product List | Glossary On
Versions: 1 2 3 4 5 6 7 8 9 10 11 12 13 14 15 16 17 18 19 20 21 22 23 24 25 26 27 28 29 30 31 32 33 34 35 36 37 38 39 40 41 42 43 44 45 46 47 48 49 50
426
NZUS59 KLOT 192303
HRRLOT

CHICAGO AREA WEATHER ROUNDUP
NATIONAL WEATHER SERVICE CHICAGO/ROMEOVILLE IL
600 PM CDT SAT AUG 19 2017

NOTE: "FAIR" INDICATES FEW OR NO CLOUDS BELOW 12,000 FEET WITH NO
SIGNIFICANT WEATHER AND/OR OBSTRUCTIONS TO VISIBILITY.

* THESE STATIONS ARE NOT UNDER NWS QUALITY CONTROL. THEY ALSO MAY NOT
  REPORT WEATHER SUCH AS PRECIPITATION OR FOG.

ILZ005-006-012>014-019>023-200000-
NORTHEAST ILLINOIS

CITY           SKY/WX    TMP DP  RH WIND       PRES   REMARKS
OHARE          MOSUNNY   82  56  40 E7        29.94S HX  82
MIDWAY         MOSUNNY   81  54  39 E10       29.94S HX  81
AURORA         SUNNY     79  64  60 NW5       29.97R HX  81
LANSING*       SUNNY     80  52  37 SE7       29.95S HX  80
JOLIET*        SUNNY     82  60  46 SW5       29.95S HX  83
WAUKEGAN       SUNNY     75  62  64 SE6       29.95S
DUPAGE AIRPORT SUNNY     80  62  54 W7        29.95R HX  81
WHEELING       SUNNY     79  59  50 E8        29.96S HX  80
MORRIS*        SUNNY     80  57  46 CALM      29.94S HX  80
NORTHERLY ISL    N/A     76  60  57 E8          N/A
$$

WIZ051-052-058>065-066-070>072-200000-
SOUTHEAST WISCONSIN

CITY           SKY/WX    TMP DP  RH WIND       PRES   REMARKS
MILWAUKEE      MOSUNNY   81  60  48 SW9       29.94S HX  82
KENOSHA*       SUNNY     79  59  50 VRB6      29.95S HX  80
RACINE*        SUNNY     77  63  61 S8        29.96S
WAUKESHA       MOSUNNY   75  61  60 W7        29.96S
$$

INZ001>003-010>013-019-020-200000-
NORTHWEST INDIANA

CITY           SKY/WX    TMP DP  RH WIND       PRES   REMARKS
GARY*          SUNNY     81  50  34 VRB6      29.96S HX  80
MICHIGAN CITY* NOT AVBL
RENSSELAER*    NOT AVBL
VALPARAISO     SUNNY     80  61  52 N5        29.97R HX  81
$$

LMZ740>746-200000-
SOUTHERN LAKE MICHIGAN

STATION/POSITION TIME  SKY/WX   TEMP WIND        PRES    VSBY
                                AIR  DIR/SP/G
                 (UTC)          (F)  (DEG/KT/KT) (MB)    (MI)
HARRISON CRIB    2240            75  120/  8/  9   N/A
BURNHAM HARBOR   NOT AVBL
CALUMET HARBOR   2230            74   90/  9/ 11 1013.8F
BURNS HARBOR     2208            75   50/  7/  8 1015.2
MICHIGAN CITY    2240            72   30/  5/  6   N/A
$$

ABBREVIATIONS USED IN REMARKS
   TC - TEMPERATURE IN CELSIUS
  WCI - WIND CHILL INDEX
   HX - HEAT INDEX
  VSB - VISIBILITY
$$




USA.gov is the U.S. government's official web portal to all federal, state and local government web resources and services.